Location: De Har
(53.3413°N, 6.6858°E)
Time: 08:36:59
(UTC+00:00)

NOSS 3-4 (A) - Pass Details

Date: 22 April 2026
Orbit: 769 x 1442 km, 63.4° (Epoch: 10 January)

Event Time Altitude Azimuth Distance (km) Brightness Sun altitude
Rises 03:33:36 0° 311° (NW) 3,711 6.3 -6.8°
Reaches altitude 10° 03:36:16 10° 302° (WNW) 2,855 5.7 -6.5°
Maximum altitude 03:42:14 34° 241° (WSW) 1,824 4.4 -5.7°
Drops below altitude 10° 03:49:04 10° 181° (S) 3,273 6.0 -4.8°
Sets 03:52:21 0° 172° (S) 4,329 6.7 -4.4°
